QPF
0.00 0.00 0.01 0.01 0.01 0.01 0.01 0.01 0.03 0.04 0.07 0.08 0.10 0.07 0.03 0.03 0.03 0.03 0.02 0.01 0.01 0.02 0.05 0.05 0.05 0.06 0.05 0.03 0.01 0.01 0.02 0.02 0.04 0.05 0.07 0.06 0.06 0.07 0.06 0.05 0.05 0.06 0.06 0.05
0.01 0.00 0.00 0.01 0.00 0.00 0.00 0.00 0.02 0.04 0.05 0.05 0.06 0.04 0.02 0.02 0.02 0.03 0.03 0.02 0.02 0.03 0.03 0.02 0.02 0.04 0.04 0.03 0.02 0.02 0.02 0.03 0.04 0.04 0.05 0.04 0.05 0.07 0.08 0.06 0.05 0.05 0.07 0.07
0.01 0.01 0.01 0.03 0.01 0.01 0.00 0.01 0.01 0.02 0.03 0.03 0.03 0.04 0.02 0.02 0.02 0.02 0.03 0.02 0.02 0.02 0.01 0.01 0.03 0.04 0.03 0.02 0.02 0.03 0.03 0.04 0.05 0.04 0.03 0.03 0.04 0.05 0.06 0.06 0.06 0.05 0.05 0.04
0.01 0.02 0.04 0.03 0.01 0.00 0.01 0.02 0.01 0.01 0.02 0.02 0.02 0.03 0.02 0.02 0.02 0.02 0.03 0.02 0.02 0.01 0.01 0.01 0.03 0.04 0.03 0.01 0.01 0.04 0.07 0.05 0.04 0.03 0.04 0.03 0.03 0.02 0.03 0.04 0.05 0.04 0.03 0.03
0.02 0.04 0.05 0.03 0.01 0.01 0.02 0.04 0.02 0.01 0.02 0.02 0.02 0.03 0.03 0.01 0.01 0.02 0.02 0.02 0.02 0.01 0.01 0.01 0.01 0.01 0.01 0.01 0.01 0.01 0.04 0.04 0.03 0.04 0.04 0.02 0.02 0.02 0.03 0.04 0.04 0.03 0.02 0.03
0.02 0.04 0.07 0.05 0.02 0.01 0.01 0.03 0.01 0.01 0.01 0.02 0.03 0.05 0.05 0.02 0.01 0.01 0.01 0.02 0.02 0.01 0.01 0.01 0.01 0.00 0.00 0.01 0.01 0.01 0.01 0.02 0.02 0.02 0.02 0.03 0.03 0.03 0.04 0.04 0.04 0.03 0.02 0.03
0.02 0.05 0.05 0.01 0.01 0.02 0.04 0.05 0.01 0.00 0.01 0.02 0.03 0.05 0.06 0.04 0.02 0.02 0.02 0.02 0.02 0.02 0.01 0.01 0.01 0.01 0.00 0.01 0.02 0.01 0.01 0.01 0.02 0.02 0.02 0.03 0.04 0.05 0.04 0.04 0.04 0.03 0.03 0.03
0.03 0.07 0.07 0.02 0.02 0.06 0.07 0.03 0.01 0.01 0.01 0.03 0.05 0.05 0.04 0.04 0.04 0.04 0.04 0.05 0.03 0.03 0.02 0.01 0.01 0.01 0.01 0.01 0.01 0.01 0.01 0.01 0.01 0.02 0.02 0.03 0.05 0.06 0.05 0.04 0.04 0.04 0.03 0.03
0.04 0.06 0.04 0.03 0.03 0.03 0.02 0.02 0.02 0.02 0.02 0.02 0.02 0.03 0.03 0.02 0.03 0.04 0.03 0.06 0.04 0.02 0.03 0.02 0.01 0.01 0.01 0.01 0.01 0.01 0.01 0.01 0.02 0.02 0.02 0.03 0.04 0.04 0.04 0.04 0.04 0.04 0.03 0.03
0.05 0.06 0.04 0.02 0.02 0.02 0.02 0.02 0.02 0.02 0.02 0.01 0.01 0.01 0.02 0.02 0.02 0.02 0.02 0.03 0.03 0.03 0.02 0.02 0.02 0.01 0.01 0.01 0.01 0.01 0.02 0.02 0.02 0.03 0.03 0.03 0.04 0.04 0.04 0.04 0.04 0.04 0.04 0.04
0.05 0.05 0.06 0.03 0.02 0.01 0.01 0.02 0.01 0.01 0.02 0.02 0.02 0.01 0.02 0.02 0.02 0.02 0.02 0.02 0.01 0.01 0.01 0.01 0.02 0.02 0.02 0.02 0.01 0.01 0.01 0.01 0.02 0.02 0.02 0.02 0.03 0.03 0.03 0.03 0.03 0.03 0.03 0.02
0.06 0.04 0.06 0.05 0.03 0.02 0.04 0.06 0.04 0.02 0.02 0.03 0.03 0.02 0.02 0.02 0.03 0.03 0.03 0.03 0.02 0.01 0.01 0.01 0.02 0.02 0.02 0.02 0.02 0.01 0.01 0.01 0.02 0.02 0.02 0.02 0.02 0.03 0.02 0.02 0.01 0.01 0.01 0.01
0.03 0.03 0.05 0.03 0.03 0.05 0.05 0.04 0.02 0.02 0.03 0.04 0.04 0.03 0.01 0.01 0.02 0.02 0.02 0.02 0.01 0.01 0.01 0.02 0.03 0.03 0.02 0.02 0.02 0.02 0.02 0.02 0.02 0.02 0.02 0.02 0.02 0.02 0.03 0.03 0.02 0.01 0.01 0.01
0.01 0.01 0.01 0.02 0.02 0.02 0.02 0.02 0.01 0.01 0.04 0.08 0.08 0.05 0.02 0.01 0.01 0.02 0.02 0.01 0.01 0.01 0.01 0.03 0.05 0.05 0.03 0.03 0.03 0.03 0.03 0.03 0.03 0.02 0.02 0.02 0.02 0.03 0.03 0.05 0.04 0.03 0.02 0.02
0.00 0.01 0.01 0.01 0.01 0.01 0.01 0.02 0.01 0.01 0.01 0.04 0.04 0.02 0.01 0.01 0.02 0.02 0.02 0.02 0.01 0.01 0.01 0.01 0.03 0.03 0.02 0.02 0.03 0.03 0.03 0.03 0.02 0.02 0.02 0.02 0.02 0.02 0.02 0.03 0.04 0.04 0.03 0.03
0.01 0.00 0.00 0.01 0.01 0.01 0.02 0.01 0.01 0.01 0.01 0.01 0.02 0.01 0.01 0.02 0.02 0.02 0.02 0.02 0.02 0.02 0.01 0.02 0.02 0.02 0.01 0.02 0.04 0.04 0.03 0.03 0.02 0.02 0.02 0.02 0.03 0.03 0.02 0.02 0.02 0.02 0.02 0.03
0.01 0.00 0.01 0.01 0.01 0.01 0.02 0.01 0.01 0.01 0.01 0.02 0.02 0.02 0.03 0.04 0.04 0.03 0.03 0.03 0.02 0.02 0.02 0.02 0.02 0.02 0.02 0.01 0.02 0.02 0.03 0.04 0.03 0.02 0.02 0.02 0.02 0.02 0.02 0.01 0.01 0.02 0.02 0.02
0.02 0.01 0.01 0.01 0.02 0.03 0.02 0.01 0.01 0.02 0.02 0.01 0.02 0.03 0.04 0.05 0.05 0.03 0.03 0.02 0.02 0.02 0.02 0.03 0.02 0.02 0.02 0.01 0.01 0.01 0.02 0.02 0.02 0.02 0.01 0.02 0.01 0.01 0.01 0.01 0.01 0.02 0.02 0.02
0.00 0.00 0.00 0.00 0.00 0.01 0.02 0.02 0.02 0.02 0.02 0.02 0.02 0.02 0.03 0.05 0.05 0.03 0.01 0.01 0.01 0.01 0.02 0.02 0.02 0.02 0.02 0.02 0.01 0.01 0.01 0.01 0.02 0.02 0.02 0.02 0.01 0.01 0.01 0.01 0.01 0.01 0.01 0.01
0.00 0.00 0.00 0.00 0.00 0.01 0.01 0.01 0.01 0.01 0.01 0.02 0.02 0.02 0.03 0.04 0.05 0.03 0.02 0.02 0.02 0.02 0.01 0.01 0.01 0.02 0.03 0.03 0.01 0.01 0.01 0.01 0.02 0.02 0.02 0.02 0.01 0.01 0.01 0.01 0.01 0.02 0.02 0.01
0.00 0.00 0.00 0.00 0.00 0.01 0.01 0.01 0.01 0.01 0.01 0.02 0.03 0.03 0.03 0.05 0.05 0.04 0.03 0.03 0.03 0.02 0.01 0.01 0.01 0.01 0.01 0.03 0.01 0.01 0.02 0.01 0.01 0.02 0.02 0.02 0.02 0.01 0.01 0.02 0.02 0.02 0.02 0.02
0.01 0.01 0.01 0.01 0.01 0.01 0.01 0.02 0.02 0.02 0.02 0.03 0.03 0.03 0.04 0.05 0.04 0.05 0.03 0.03 0.02 0.02 0.01 0.01 0.01 0.01 0.01 0.01 0.01 0.02 0.03 0.02 0.02 0.02 0.02 0.02 0.02 0.02 0.02 0.02 0.02 0.02 0.02 0.03
0.02 0.02 0.02 0.02 0.02 0.03 0.02 0.03 0.02 0.02 0.03 0.04 0.04 0.04 0.04 0.05 0.04 0.04 0.03 0.02 0.01 0.01 0.01 0.01 0.02 0.02 0.02 0.01 0.01 0.02 0.03 0.03 0.03 0.03 0.04 0.05 0.03 0.03 0.03 0.03 0.02 0.01 0.02 0.02
0.02 0.02 0.02 0.02 0.02 0.03 0.03 0.03 0.03 0.03 0.04 0.05 0.05 0.05 0.04 0.04 0.04 0.03 0.03 0.02 0.01 0.01 0.01 0.01 0.01 0.01 0.01 0.01 0.02 0.03 0.04 0.04 0.03 0.04 0.04 0.04 0.04 0.05 0.04 0.03 0.02 0.01 0.01 0.01
0.03 0.03 0.02 0.02 0.02 0.03 0.04 0.03 0.03 0.03 0.04 0.04 0.05 0.05 0.04 0.03 0.03 0.03 0.03 0.02 0.02 0.01 0.01 0.01 0.01 0.01 0.01 0.02 0.02 0.04 0.06 0.05 0.04 0.04 0.04 0.03 0.03 0.04 0.03 0.03 0.02 0.03 0.03 0.03
0.04 0.04 0.03 0.03 0.03 0.03 0.03 0.03 0.03 0.03 0.03 0.03 0.03 0.03 0.03 0.03 0.04 0.04 0.03 0.03 0.02 0.02 0.01 0.01 0.01 0.02 0.03 0.02 0.02 0.03 0.04 0.04 0.04 0.03 0.04 0.04 0.04 0.03 0.03 0.03 0.03 0.03 0.03 0.04
0.05 0.04 0.04 0.03 0.03 0.04 0.04 0.04 0.05 0.04 0.04 0.04 0.04 0.03 0.03 0.03 0.04 0.05 0.05 0.04 0.03 0.02 0.02 0.02 0.02 0.02 0.03 0.02 0.02 0.03 0.03 0.04 0.04 0.03 0.03 0.03 0.03 0.03 0.03 0.03 0.03 0.03 0.03 0.03
MSLP
1009.68 1009.83 1009.95 1010.01 1010.01 1009.93 1009.76 1009.50 1009.16 1008.78 1008.39 1008.04 1007.79 1007.65 1007.64 1007.77 1008.02 1008.37 1008.78 1009.23 1009.72 1010.23 1010.77 1011.36 1012.00 1012.68 1013.39 1014.11 1014.79 1015.40 1015.90 1016.28 1016.53 1016.69 1016.77 1016.83 1016.90 1017.00 1017.15 1017.33 1017.50 1017.61 1017.62 1017.50
1009.72 1009.80 1009.77 1009.62 1009.36 1009.00 1008.55 1008.04 1007.51 1007.00 1006.57 1006.25 1006.09 1006.09 1006.25 1006.56 1006.99 1007.50 1008.07 1008.66 1009.27 1009.90 1010.55 1011.23 1011.95 1012.70 1013.48 1014.25 1014.97 1015.61 1016.13 1016.53 1016.80 1016.96 1017.04 1017.10 1017.16 1017.25 1017.38 1017.54 1017.70 1017.82 1017.85 1017.75
1009.93 1009.97 1009.82 1009.50 1009.01 1008.39 1007.67 1006.92 1006.18 1005.53 1005.01 1004.66 1004.53 1004.61 1004.89 1005.34 1005.92 1006.59 1007.30 1008.04 1008.78 1009.53 1010.28 1011.06 1011.86 1012.68 1013.52 1014.34 1015.10 1015.77 1016.33 1016.76 1017.05 1017.23 1017.32 1017.37 1017.41 1017.47 1017.56 1017.69 1017.81 1017.91 1017.93 1017.85
1010.27 1010.28 1010.06 1009.61 1008.95 1008.12 1007.19 1006.21 1005.28 1004.46 1003.83 1003.42 1003.28 1003.39 1003.74 1004.28 1004.97 1005.76 1006.60 1007.46 1008.32 1009.17 1010.02 1010.88 1011.75 1012.63 1013.51 1014.37 1015.17 1015.88 1016.48 1016.94 1017.26 1017.47 1017.57 1017.62 1017.64 1017.66 1017.71 1017.78 1017.85 1017.90 1017.90 1017.82
1010.61 1010.61 1010.35 1009.82 1009.05 1008.07 1006.98 1005.84 1004.75 1003.79 1003.05 1002.57 1002.39 1002.50 1002.88 1003.47 1004.24 1005.12 1006.05 1007.01 1007.96 1008.89 1009.82 1010.74 1011.66 1012.58 1013.49 1014.37 1015.20 1015.94 1016.56 1017.06 1017.42 1017.65 1017.78 1017.83 1017.84 1017.83 1017.83 1017.84 1017.85 1017.85 1017.82 1017.73
1010.78 1010.78 1010.50 1009.94 1009.11 1008.06 1006.87 1005.63 1004.44 1003.40 1002.58 1002.05 1001.83 1001.93 1002.32 1002.95 1003.77 1004.70 1005.71 1006.73 1007.75 1008.75 1009.72 1010.68 1011.63 1012.56 1013.48 1014.37 1015.20 1015.95 1016.59 1017.11 1017.50 1017.76 1017.91 1017.98 1017.98 1017.96 1017.92 1017.89 1017.85 1017.81 1017.75 1017.66
1010.62 1010.62 1010.34 1009.78 1008.95 1007.89 1006.69 1005.43 1004.22 1003.16 1002.32 1001.76 1001.54 1001.64 1002.04 1002.70 1003.55 1004.53 1005.58 1006.65 1007.72 1008.76 1009.76 1010.73 1011.68 1012.60 1013.50 1014.37 1015.18 1015.92 1016.56 1017.09 1017.49 1017.78 1017.96 1018.04 1018.06 1018.04 1018.00 1017.94 1017.89 1017.83 1017.75 1017.65
1010.07 1010.06 1009.79 1009.26 1008.47 1007.47 1006.32 1005.13 1003.97 1002.95 1002.15 1001.63 1001.44 1001.56 1001.99 1002.67 1003.55 1004.56 1005.64 1006.75 1007.85 1008.90 1009.91 1010.88 1011.81 1012.70 1013.56 1014.38 1015.15 1015.85 1016.47 1016.98 1017.39 1017.70 1017.90 1018.01 1018.06 1018.06 1018.03 1017.99 1017.95 1017.89 1017.82 1017.74
1009.16 1009.12 1008.88 1008.41 1007.70 1006.81 1005.78 1004.70 1003.66 1002.75 1002.05 1001.61 1001.47 1001.65 1002.11 1002.82 1003.72 1004.75 1005.86 1006.98 1008.09 1009.15 1010.16 1011.11 1012.00 1012.85 1013.65 1014.41 1015.11 1015.75 1016.32 1016.80 1017.20 1017.50 1017.72 1017.86 1017.95 1017.99 1018.01 1018.01 1018.01 1017.99 1017.95 1017.89
1008.01 1007.97 1007.76 1007.36 1006.77 1006.02 1005.15 1004.24 1003.36 1002.60 1002.02 1001.69 1001.64 1001.87 1002.37 1003.10 1004.02 1005.06 1006.16 1007.29 1008.39 1009.45 1010.44 1011.36 1012.21 1013.00 1013.74 1014.42 1015.05 1015.61 1016.12 1016.55 1016.91 1017.20 1017.43 1017.60 1017.72 1017.82 1017.90 1017.97 1018.02 1018.06 1018.08 1018.06
1006.83 1006.79 1006.63 1006.32 1005.86 1005.27 1004.58 1003.86 1003.17 1002.57 1002.14 1001.91 1001.94 1002.23 1002.75 1003.49 1004.40 1005.42 1006.51 1007.62 1008.70 1009.73 1010.69 1011.58 1012.39 1013.12 1013.79 1014.40 1014.95 1015.43 1015.86 1016.23 1016.55 1016.81 1017.03 1017.22 1017.38 1017.53 1017.67 1017.81 1017.94 1018.05 1018.14 1018.18
1005.82 1005.79 1005.69 1005.48 1005.15 1004.72 1004.21 1003.67 1003.16 1002.72 1002.42 1002.30 1002.39 1002.71 1003.24 1003.96 1004.83 1005.81 1006.85 1007.91 1008.95 1009.94 1010.87 1011.72 1012.48 1013.17 1013.78 1014.32 1014.80 1015.21 1015.57 1015.87 1016.13 1016.36 1016.56 1016.75 1016.93 1017.12 1017.32 1017.52 1017.72 1017.91 1018.06 1018.15
1005.09 1005.09 1005.03 1004.91 1004.71 1004.42 1004.08 1003.71 1003.34 1003.05 1002.86 1002.81 1002.95 1003.27 1003.77 1004.44 1005.25 1006.16 1007.13 1008.13 1009.11 1010.05 1010.93 1011.74 1012.47 1013.12 1013.68 1014.17 1014.59 1014.94 1015.23 1015.48 1015.69 1015.87 1016.05 1016.22 1016.42 1016.63 1016.86 1017.11 1017.36 1017.60 1017.80 1017.95
1004.65 1004.67 1004.66 1004.61 1004.51 1004.34 1004.13 1003.89 1003.65 1003.47 1003.36 1003.37 1003.53 1003.84 1004.30 1004.91 1005.64 1006.46 1007.34 1008.25 1009.16 1010.04 1010.87 1011.64 1012.34 1012.95 1013.48 1013.94 1014.31 1014.62 1014.87 1015.07 1015.24 1015.39 1015.54 1015.69 1015.88 1016.09 1016.33 1016.60 1016.88 1017.15 1017.38 1017.56
1004.42 1004.44 1004.45 1004.45 1004.40 1004.32 1004.21 1004.08 1003.94 1003.85 1003.81 1003.86 1004.03 1004.32 1004.74 1005.28 1005.93 1006.66 1007.45 1008.28 1009.11 1009.92 1010.70 1011.43 1012.09 1012.68 1013.19 1013.62 1013.98 1014.26 1014.49 1014.67 1014.81 1014.93 1015.05 1015.19 1015.36 1015.55 1015.79 1016.05 1016.32 1016.59 1016.83 1017.02
1004.24 1004.23 1004.24 1004.25 1004.24 1004.21 1004.17 1004.11 1004.07 1004.05 1004.07 1004.17 1004.36 1004.65 1005.04 1005.54 1006.12 1006.77 1007.48 1008.22 1008.98 1009.72 1010.44 1011.12 1011.75 1012.32 1012.81 1013.23 1013.59 1013.87 1014.09 1014.26 1014.40 1014.51 1014.62 1014.74 1014.89 1015.06 1015.27 1015.51 1015.75 1016.00 1016.22 1016.40
1003.98 1003.92 1003.89 1003.87 1003.87 1003.87 1003.88 1003.89 1003.92 1003.97 1004.08 1004.24 1004.47 1004.78 1005.18 1005.65 1006.19 1006.80 1007.44 1008.12 1008.81 1009.49 1010.15 1010.78 1011.37 1011.91 1012.39 1012.80 1013.15 1013.44 1013.68 1013.86 1014.01 1014.13 1014.24 1014.36 1014.49 1014.64 1014.82 1015.02 1015.22 1015.43 1015.61 1015.76
1003.57 1003.43 1003.34 1003.29 1003.27 1003.28 1003.32 1003.39 1003.49 1003.63 1003.82 1004.06 1004.37 1004.73 1005.17 1005.65 1006.19 1006.77 1007.38 1008.01 1008.64 1009.26 1009.87 1010.45 1010.99 1011.50 1011.95 1012.35 1012.71 1013.00 1013.25 1013.46 1013.63 1013.77 1013.90 1014.03 1014.16 1014.29 1014.44 1014.60 1014.76 1014.92 1015.05 1015.16
1003.04 1002.82 1002.66 1002.55 1002.51 1002.52 1002.59 1002.71 1002.88 1003.11 1003.39 1003.73 1004.12 1004.57 1005.06 1005.59 1006.15 1006.74 1007.33 1007.93 1008.52 1009.09 1009.64 1010.17 1010.66 1011.12 1011.54 1011.92 1012.26 1012.56 1012.83 1013.05 1013.25 1013.43 1013.58 1013.73 1013.86 1014.00 1014.13 1014.26 1014.38 1014.49 1014.58 1014.65
1002.52 1002.23 1002.00 1001.85 1001.78 1001.79 1001.88 1002.04 1002.27 1002.57 1002.94 1003.37 1003.85 1004.37 1004.93 1005.52 1006.11 1006.71 1007.31 1007.88 1008.44 1008.97 1009.47 1009.94 1010.38 1010.79 1011.17 1011.52 1011.84 1012.13 1012.40 1012.65 1012.87 1013.07 1013.25 1013.42 1013.57 1013.71 1013.83 1013.95 1014.04 1014.12 1014.18 1014.22
1002.19 1001.84 1001.57 1001.39 1001.30 1001.30 1001.39 1001.58 1001.85 1002.20 1002.62 1003.10 1003.64 1004.22 1004.82 1005.44 1006.07 1006.68 1007.28 1007.84 1008.37 1008.87 1009.33 1009.75 1010.14 1010.50 1010.84 1011.15 1011.44 1011.72 1011.98 1012.23 1012.46 1012.68 1012.88 1013.07 1013.23 1013.38 1013.51 1013.62 1013.70 1013.76 1013.80 1013.83
1002.17 1001.81 1001.52 1001.32 1001.22 1001.20 1001.29 1001.47 1001.73 1002.08 1002.51 1002.99 1003.54 1004.12 1004.73 1005.36 1005.98 1006.59 1007.18 1007.74 1008.25 1008.73 1009.16 1009.55 1009.90 1010.23 1010.53 1010.80 1011.07 1011.32 1011.56 1011.79 1012.02 1012.24 1012.45 1012.64 1012.82 1012.97 1013.11 1013.22 1013.30 1013.36 1013.40 1013.43
1002.53 1002.19 1001.91 1001.71 1001.59 1001.56 1001.61 1001.75 1001.96 1002.25 1002.62 1003.04 1003.53 1004.06 1004.62 1005.20 1005.79 1006.38 1006.95 1007.49 1008.00 1008.46 1008.89 1009.27 1009.61 1009.92 1010.20 1010.45 1010.69 1010.91 1011.13 1011.33 1011.54 1011.74 1011.93 1012.12 1012.29 1012.45 1012.58 1012.70 1012.79 1012.87 1012.92 1012.97
1003.21 1002.92 1002.68 1002.49 1002.37 1002.30 1002.29 1002.35 1002.46 1002.64 1002.89 1003.19 1003.55 1003.96 1004.42 1004.91 1005.43 1005.97 1006.51 1007.04 1007.54 1008.02 1008.46 1008.86 1009.22 1009.53 1009.81 1010.06 1010.27 1010.47 1010.66 1010.83 1011.00 1011.17 1011.33 1011.50 1011.65 1011.80 1011.93 1012.05 1012.16 1012.25 1012.33 1012.41
1004.08 1003.86 1003.67 1003.51 1003.37 1003.26 1003.17 1003.12 1003.11 1003.13 1003.21 1003.34 1003.53 1003.78 1004.09 1004.47 1004.89 1005.36 1005.85 1006.36 1006.88 1007.38 1007.85 1008.29 1008.68 1009.03 1009.33 1009.58 1009.80 1009.98 1010.13 1010.27 1010.40 1010.52 1010.65 1010.77 1010.90 1011.03 1011.16 1011.28 1011.40 1011.52 1011.63 1011.75
1004.93 1004.80 1004.67 1004.53 1004.39 1004.23 1004.07 1003.90 1003.74 1003.60 1003.49 1003.43 1003.43 1003.50 1003.65 1003.88 1004.20 1004.58 1005.03 1005.53 1006.04 1006.57 1007.09 1007.57 1008.02 1008.41 1008.74 1009.02 1009.24 1009.40 1009.54 1009.64 1009.73 1009.81 1009.89 1009.97 1010.07 1010.18 1010.30 1010.43 1010.57 1010.71 1010.86 1011.02
1005.61 1005.56 1005.48 1005.38 1005.23 1005.05 1004.81 1004.55 1004.26 1003.97 1003.69 1003.45 1003.28 1003.18 1003.17 1003.27 1003.48 1003.78 1004.18 1004.65 1005.17 1005.71 1006.26 1006.79 1007.27 1007.70 1008.07 1008.36 1008.58 1008.74 1008.85 1008.93 1008.98 1009.02 1009.06 1009.12 1009.19 1009.29 1009.41 1009.55 1009.71 1009.88 1010.07 1010.27
Thickness
5800 5810 5812 5806 5807 5811 5809 5810 5801 5802 5802 5805 5814 5818 5822 5824 5821 5816 5813 5810 5806 5802 5798 5796 5792 5789 5787 5784 5782 5778 5773 5769 5765 5763 5761 5757 5754 5750 5746 5742 5740 5736 5732 5729
5786 5799 5803 5799 5805 5808 5810 5814 5810 5806 5801 5814 5818 5820 5818 5815 5815 5810 5807 5805 5802 5799 5796 5792 5789 5784 5781 5780 5778 5774 5769 5766 5762 5759 5756 5752 5749 5745 5741 5737 5734 5730 5726 5722
5768 5787 5787 5779 5799 5805 5806 5811 5810 5799 5803 5814 5811 5809 5809 5810 5810 5806 5803 5800 5796 5794 5792 5789 5786 5783 5778 5776 5775 5770 5766 5762 5757 5754 5750 5746 5744 5739 5735 5731 5727 5723 5719 5716
5765 5768 5747 5783 5812 5813 5806 5806 5811 5810 5809 5812 5809 5808 5809 5809 5805 5802 5800 5798 5794 5793 5790 5788 5785 5782 5778 5774 5770 5766 5761 5757 5754 5750 5745 5741 5737 5733 5730 5726 5721 5717 5713 5710
5756 5750 5757 5780 5799 5804 5795 5790 5803 5803 5805 5807 5808 5802 5800 5804 5804 5799 5797 5797 5795 5793 5789 5785 5781 5777 5772 5769 5766 5761 5756 5753 5750 5746 5741 5736 5731 5728 5724 5720 5716 5712 5708 5704
5748 5737 5737 5767 5795 5808 5797 5775 5794 5799 5796 5796 5795 5778 5779 5795 5796 5795 5795 5793 5791 5788 5785 5779 5776 5773 5768 5764 5760 5755 5752 5749 5746 5741 5736 5731 5726 5722 5719 5715 5711 5707 5703 5700
5739 5736 5750 5779 5792 5792 5761 5761 5787 5793 5791 5789 5784 5781 5785 5790 5789 5788 5787 5786 5784 5781 5776 5772 5771 5767 5761 5757 5753 5752 5749 5745 5740 5735 5731 5726 5721 5717 5713 5709 5706 5702 5698 5695
5736 5728 5736 5773 5776 5762 5760 5778 5784 5786 5787 5785 5782 5782 5783 5781 5779 5778 5778 5777 5776 5771 5768 5767 5765 5760 5754 5750 5750 5748 5744 5739 5734 5730 5727 5723 5716 5711 5708 5704 5700 5696 5692 5688
5742 5741 5756 5767 5765 5769 5774 5772 5777 5779 5780 5779 5776 5774 5773 5771 5770 5771 5771 5769 5768 5764 5759 5758 5757 5754 5748 5746 5745 5741 5737 5732 5728 5724 5721 5717 5711 5706 5702 5699 5695 5691 5687 5682
5737 5746 5755 5760 5765 5769 5771 5770 5773 5774 5772 5771 5768 5768 5765 5764 5764 5763 5763 5761 5760 5756 5751 5749 5749 5747 5744 5741 5739 5734 5729 5725 5721 5717 5714 5710 5706 5702 5697 5693 5689 5685 5681 5677
5727 5736 5745 5750 5754 5758 5762 5765 5765 5766 5765 5763 5761 5759 5758 5756 5755 5755 5754 5754 5752 5748 5744 5742 5741 5739 5737 5735 5732 5727 5722 5719 5716 5713 5709 5703 5698 5694 5690 5686 5682 5678 5675 5670
5717 5728 5727 5731 5745 5751 5750 5750 5751 5751 5754 5755 5754 5751 5751 5750 5749 5748 5747 5746 5743 5741 5738 5735 5734 5732 5730 5729 5725 5720 5716 5713 5711 5708 5703 5699 5693 5688 5683 5680 5675 5672 5667 5662
5721 5727 5727 5728 5734 5740 5739 5742 5744 5745 5745 5744 5745 5745 5744 5743 5743 5742 5741 5739 5736 5734 5731 5729 5727 5725 5723 5723 5720 5716 5712 5709 5707 5703 5699 5695 5690 5685 5679 5673 5668 5664 5660 5656
5719 5718 5715 5718 5722 5727 5730 5733 5735 5737 5738 5738 5737 5737 5736 5735 5735 5734 5732 5732 5731 5728 5725 5723 5721 5719 5718 5717 5714 5710 5708 5704 5701 5698 5695 5692 5687 5683 5678 5672 5665 5661 5656 5650
5710 5711 5711 5714 5716 5717 5720 5722 5721 5723 5725 5726 5727 5727 5727 5726 5725 5725 5726 5727 5724 5721 5719 5717 5714 5713 5713 5711 5708 5705 5702 5699 5696 5693 5690 5687 5683 5679 5675 5670 5664 5659 5654 5646
5700 5703 5704 5704 5705 5708 5710 5711 5711 5712 5714 5715 5716 5717 5718 5718 5719 5719 5719 5718 5714 5712 5711 5709 5707 5707 5707 5705 5701 5698 5695 5691 5688 5686 5683 5681 5678 5674 5670 5665 5660 5655 5650 5645
5687 5688 5691 5692 5694 5697 5699 5702 5703 5704 5705 5706 5708 5709 5710 5710 5709 5709 5709 5710 5708 5706 5705 5703 5701 5701 5700 5698 5695 5693 5690 5685 5681 5679 5678 5675 5672 5669 5666 5661 5656 5651 5647 5641
5683 5686 5687 5687 5688 5689 5690 5694 5696 5698 5699 5701 5702 5702 5702 5701 5700 5700 5701 5701 5700 5698 5698 5697 5696 5694 5692 5691 5688 5687 5684 5680 5677 5674 5672 5669 5666 5664 5661 5656 5652 5648 5642 5636
5681 5683 5684 5685 5686 5687 5687 5689 5691 5693 5695 5696 5695 5694 5694 5695 5695 5695 5694 5693 5691 5689 5690 5691 5688 5687 5686 5684 5681 5680 5678 5675 5672 5670 5666 5662 5659 5658 5655 5651 5647 5643 5638 5632
5676 5678 5679 5680 5682 5683 5683 5685 5686 5687 5688 5688 5688 5687 5686 5687 5688 5688 5687 5685 5686 5687 5687 5685 5683 5682 5680 5677 5674 5675 5673 5670 5667 5664 5660 5657 5654 5651 5648 5645 5641 5637 5632 5627
5668 5670 5671 5673 5675 5677 5678 5680 5680 5680 5681 5681 5680 5679 5679 5680 5681 5680 5679 5678 5679 5681 5680 5677 5677 5675 5674 5670 5667 5668 5667 5664 5661 5658 5654 5651 5648 5645 5641 5638 5634 5630 5626 5621
5661 5663 5665 5667 5668 5670 5672 5673 5674 5674 5674 5673 5673 5674 5673 5672 5673 5674 5674 5674 5675 5672 5673 5673 5672 5668 5666 5663 5663 5663 5661 5659 5656 5653 5649 5646 5642 5638 5635 5632 5629 5625 5620 5616
5654 5656 5658 5660 5661 5662 5665 5666 5667 5668 5667 5667 5667 5667 5667 5667 5669 5668 5667 5670 5670 5666 5667 5667 5663 5660 5657 5658 5658 5656 5655 5653 5650 5648 5644 5640 5637 5633 5630 5626 5623 5619 5615 5610
5648 5649 5651 5653 5654 5654 5655 5658 5660 5662 5663 5662 5662 5662 5662 5662 5663 5666 5665 5663 5662 5660 5661 5657 5654 5653 5650 5653 5651 5650 5649 5647 5645 5642 5639 5635 5632 5628 5624 5620 5616 5613 5609 5604
5642 5644 5645 5646 5646 5647 5649 5651 5653 5655 5655 5656 5656 5656 5658 5660 5659 5660 5661 5658 5654 5653 5653 5649 5647 5646 5646 5647 5646 5645 5643 5641 5639 5635 5632 5629 5625 5621 5617 5614 5610 5606 5602 5598
5635 5638 5639 5640 5641 5643 5645 5646 5647 5648 5650 5649 5650 5652 5653 5653 5654 5654 5653 5651 5650 5647 5647 5646 5644 5641 5642 5642 5640 5639 5637 5635 5633 5630 5626 5622 5618 5614 5610 5606 5602 5598 5595 5591
5630 5632 5634 5636 5639 5640 5642 5642 5643 5643 5644 5644 5643 5645 5646 5647 5647 5647 5646 5644 5643 5642 5641 5641 5640 5638 5637 5636 5634 5632 5630 5628 5625 5622 5618 5614 5610 5605 5601 5597 5593 5590 5586 5583